Location: Byszew
(52.1813°N, 19.2693°E)
Time: 15:33:53
(UTC+00:00)

ISS - Visible Passes

Search period start: 22 January 2022 00:00
Search period end: 01 February 2022 00:00
Orbit: 413 x 422 km, 51.6° (Epoch: 22 January)

Date Brightness Start Highest point End Pass type
(mag) Time Alt. Az. Time Alt. Az. Time Alt. Az.
22 Jan -3.4 17:16:42 10° SW 17:19:55 48° SSE 17:19:58 48° SSE visible
23 Jan -2.8 16:28:55 10° SW 16:32:01 36° SSE 16:33:58 19° E visible
23 Jan -1.6 18:05:15 10° W 18:06:54 27° WSW 18:06:54 27° WSW visible
24 Jan -3.9 17:17:16 10° WSW 17:20:36 72° SSE 17:20:52 66° SE visible
25 Jan -3.5 16:29:18 10° WSW 16:32:35 60° SSE 16:34:48 19° E visible
25 Jan -1.8 18:05:57 10° W 18:07:44 29° W 18:07:44 29° W visible
26 Jan -3.9 17:17:55 10° W 17:21:16 84° S 17:21:39 67° ESE visible
27 Jan -3.8 16:29:52 10° W 16:33:13 80° S 16:35:35 18° E visible
27 Jan -1.9 18:06:37 10° W 18:08:30 31° W 18:08:30 31° W visible
28 Jan -3.8 17:18:33 10° W 17:21:53 77° S 17:22:26 58° ESE visible
29 Jan -3.8 16:30:28 10° W 16:33:49 83° S 16:36:24 16° E visible
29 Jan -1.9 18:07:15 10° W 18:09:20 30° WSW 18:09:20 30° WSW visible
30 Jan -3.3 17:19:08 10° W 17:22:24 55° SSW 17:23:20 38° SE visible
31 Jan -3.5 16:31:01 10° W 16:34:21 67° SSW 16:37:24 12° ESE visible
31 Jan -1.6 18:08:00 10° W 18:10:21 23° SW 18:10:21 23° SW visible
